Location: Bernterode
(51.3995°N, 10.4772°E)
Time: 01:19:11
(UTC+00:00)

Daily predictions for brighter satellites

Satellite Brightness Start Highest point End
(mag) Time Altitude Azimuth Time Altitude Azimuth Time Altitude Azimuth
ATLAS 3B R/B 4.0 02:24:07 36° E 02:24:07 36° E 02:29:00 10° NE
Cosmos 2322 Rocket 4.4 02:36:44 21° NE 02:36:44 21° NE 02:38:39 10° NE
CENTAUR R/B 4.0 02:50:44 38° NNE 02:51:03 38° NNE 02:59:01 10° E
Cosmos 2333 Rocket 3.6 03:01:13 35° E 03:01:13 35° E 03:05:18 10° NE
SL-16 R/B 4.1 03:03:55 23° NNE 03:03:55 23° NNE 03:05:57 10° NNE
Cosmos 2278 Rocket 3.9 03:10:43 27° NNE 03:11:10 27° NE 03:15:56 10° E
USA 267 3.6 03:14:58 10° E 03:20:58 55° NNE 03:20:58 55° NNE
Lacrosse 5 rocket 3.6 03:40:21 22° SE 03:40:21 22° SE 03:43:37 10° ENE
NOSS 3-1 (C) 3.8 03:43:27 50° NNE 03:43:27 50° NNE 03:48:24 10° NE
H-2A R/B 3.2 03:39:41 10° NNE 03:44:18 39° E 03:48:56 10° SSE
NOSS 3-1 (A) 3.3 03:45:54 71° ENE 03:45:54 71° ENE 03:51:34 10° NE
Cosmos 1464 Rocket 3.9 03:47:24 32° S 03:50:30 82° E 03:56:48 10° NNE
CZ-4C R/B 3.6 03:48:39 33° N 03:50:36 40° NNE 03:57:56 10° E
Cosmos 2360 Rocket 2.5 03:57:00 57° N 03:57:00 57° N 04:01:33 10° NNE
Cosmos 2219 Rocket 2.5 03:56:12 43° S 03:57:57 65° ESE 04:03:36 10° NE
USA 281 4.1 03:52:35 10° NE 03:58:54 47° ESE 04:05:11 10° S
SL-08 R/B 4.2 03:54:28 10° SE 03:58:55 45° ENE 04:00:28 33° NNE
BREEZE-M DEB (TANK) 3.9 03:59:29 71° SW 03:59:56 76° S 04:13:47 10° E
Cosmos 1943 Rocket 3.7 04:01:03 21° N 04:03:43 31° NE 04:08:35 10° ESE
Cosmos 1452 Rocket 3.6 04:07:28 55° N 04:08:29 71° ENE 04:13:43 10° SSE
ATLAS CENTAUR R/B 3.5 04:13:47 16° NNE 04:13:47 16° NNE 04:14:35 10° NNE
ARIANE 5 R/B 2.8 04:06:34 10° NNE 04:11:47 67° ESE 04:16:59 10° S
CZ-3 R/B 4.5 04:01:02 15° SW 04:12:02 24° SSW 04:19:12 10° SSE
ATLAS 3B R/B 2.8 04:11:23 55° WNW 04:12:36 62° NW 04:20:11 10° NE
Cosmos 1680 Rocket 4.1 04:16:40 41° N 04:16:40 41° N 04:20:23 10° NNE
IRS-P3 Rocket 4.4 04:10:40 10° NNE 04:15:55 88° WNW 04:19:05 25° SSW
Cosmos 2322 Rocket 2.8 04:18:33 39° NNW 04:18:33 39° NNW 04:22:52 10° NNE
Meteor 2-2 Rocket 4.3 04:19:29 53° NW 04:20:42 65° W 04:26:39 10° S
Cosmos 2034 Rocket 3.9 04:15:54 10° S 04:22:14 87° W 04:28:34 10° N
Cosmos 1515 4.4 04:25:14 43° NE 04:25:46 48° ENE 04:29:16 10° SSE
BREEZE-M DEB (TANK) 2.5 04:26:22 67° SSE 04:26:22 67° SSE 04:32:23 10° E
Cosmos 2112 Rocket 4.3 04:30:02 47° NNW 04:30:02 47° NNW 04:34:31 10° NNE
COSMO-SKYMED 1 2.4 04:26:19 10° S 04:30:40 79° WSW 04:30:47 78° W
Cosmos 2369 Rocket 4.3 04:27:57 11° N 04:31:39 19° NNE 04:35:42 10° ENE
IRS-1C 4.0 04:27:37 10° NNE 04:32:58 80° WNW 04:38:18 10° SSW
Cosmos 1048 Rocket 4.2 04:32:02 10° SSW 04:37:08 69° ESE 04:42:15 10° NNE
Cosmos 1331 Rocket 3.9 04:35:09 37° NNW 04:37:17 87° WSW 04:42:29 10° SSE
Meteor 1-26 Rocket 4.3 04:32:07 10° NNW 04:38:02 86° W 04:44:05 10° S
Cosmos 2026 Rocket 3.9 04:32:01 10° NNW 04:38:26 82° W 04:44:46 10° S
NOSS 3-2 (A) 4.3 04:38:03 26° NW 04:42:23 62° NE 04:50:41 10° ESE
Cosmos 1378 4.5 04:40:06 16° NNE 04:42:29 35° ENE 04:45:42 10° SE
Transit 2A Rocket 4.4 04:41:59 62° WNW 04:42:40 78° SW 04:47:09 10° SSE
CENTAUR R/B 3.4 04:37:54 25° NW 04:43:03 72° NE 04:52:09 10° SE
COSMOS 2428 2.8 04:37:41 10° SSW 04:43:21 76° ESE 04:49:06 10° NNE
Cosmos 2333 Rocket 2.5 04:43:17 43° WNW 04:44:12 47° NW 04:49:48 10° NNE
Cosmos 1842 Rocket 4.4 04:40:10 10° N 04:44:30 51° ENE 04:48:50 10° SSE
Cosmos 1980 Rocket 4.2 04:44:56 13° NNW 04:44:56 13° NNW 04:47:13 10° N
SL-16 R/B 3.4 04:45:47 24° NNW 04:45:47 24° NNW 04:49:44 10° NNE
Cosmos 2195 Rocket 4.4 04:39:24 10° NNW 04:45:30 63° W 04:51:31 10° S
TRACE 4.5 04:43:12 10° SSE 04:46:48 88° ENE 04:47:27 58° N
ARGOS 3.6 04:41:27 10° NNE 04:46:50 63° ESE 04:52:09 10° S
Cosmos 1544 4.1 04:44:56 10° SSE 04:47:57 39° E 04:51:00 10° NNE
Cosmos 1825 Rocket 3.4 04:43:38 10° SSW 04:47:59 82° W 04:52:21 10° N
SL-19 R/B 4.0 04:42:50 10° NNE 04:48:22 75° WNW 04:53:36 10° SSW
Nadezhda 4 Rocket 4.4 04:54:40 33° WNW 04:55:38 35° W 05:01:08 10° SSW
Cosmos 2278 Rocket 2.1 04:52:35 26° NW 04:55:53 79° WSW 05:01:32 10° SSE
Cosmos 1092 Rocket 4.0 04:50:12 10° NNW 04:56:18 61° W 05:02:26 10° S
SeaSat 1 3.7 04:52:57 10° ESE 04:57:27 37° NE 05:01:37 12° NNW
ERS-2 3.1 04:56:29 10° NNE 04:59:15 37° E 05:02:00 10° S
CZ-2D R/B 3.3 04:57:31 10° N 05:01:22 58° WNW 05:05:13 10° SSW
Cosmos 967 Rocket 4.5 04:58:16 24° NW 05:02:29 85° SW 05:08:58 10° SE
CZ-2D R/B 4.1 04:59:19 10° NNE 05:02:54 49° E 05:06:27 10° S
DELTA 2 DEB (DPAF) 4.3 04:59:47 10° SSE 05:04:02 68° ENE 05:08:20 10° N
USA 267 3.3 04:57:32 10° ESE 05:04:07 83° NNE 05:08:18 25° WNW
IRS-P3 4.1 04:59:14 10° N 05:04:27 56° WNW 05:09:38 10° SW
Cosmos 2237 Rocket 3.2 05:00:44 10° S 05:06:09 49° ESE 05:11:35 10° NE
SJ-6F 4.3 05:06:14 10° NNE 05:10:23 78° WNW 05:14:29 10° SSW
Cosmos 1634 Rocket 3.9 05:04:13 10° SSW 05:10:24 75° WNW 05:16:41 10° N
Cosmos 1076 Rocket 3.9 05:09:27 10° S 05:13:42 67° E 05:18:03 10° NNE
CZ-2C R/B 3.8 05:10:59 10° NNE 05:14:37 47° E 05:18:18 10° S
Cosmos 1110 Rocket 4.4 05:12:13 26° NW 05:14:45 42° WSW 05:19:43 10° S
SJ-12 3.8 05:10:55 10° N 05:14:53 59° WNW 05:18:51 10° SSW
Cosmos 1500 3.4 05:12:40 10° S 05:16:11 63° E 05:19:42 10° NNE
Cosmos 2322 3.7 05:10:39 10° SW 05:16:14 57° NW 05:21:50 10° NNE
IKONOS-2 4.4 05:12:54 10° S 05:17:05 77° WSW 05:21:10 11° NNW
Lacrosse 5 rocket 1.4 05:15:29 20° WSW 05:18:24 89° WNW 05:22:49 10° ENE
SKYMED 2 4.4 05:15:13 10° SSW 05:18:58 28° W 05:19:23 28° W
Elektron 3 4.4 05:17:51 29° NNW 05:19:01 51° NE 05:22:33 10° ESE
Cosmos 2221 2.9 05:17:58 25° NW 05:19:52 39° W 05:23:49 10° SSW
Meteor 2-3 Rocket 4.0 05:16:13 10° SW 05:21:31 43° WNW 05:26:51 10° N
Cosmos 2285 Rocket 4.1 05:16:55 10° SSW 05:23:17 84° ESE 05:29:43 10° NNE
H-2A R/B 2.5 05:19:14 10° N 05:23:39 34° WNW 05:28:05 10° SW
SL-08 RB Rocket 3.6 05:19:37 10° NNE 05:24:15 79° WNW 05:28:52 10° SSW
SAR-Lupe-2 3.9 05:21:17 10° NNE 05:24:53 67° ESE 05:28:27 10° S
Cosmos 2142 Rocket 4.5 05:20:14 10° S 05:26:28 90° E 05:32:40 10° N
USA 229 DEB 3.6 05:20:16 10° WSW 05:26:33 64° NW 05:33:32 10° NE
USA 229 3.6 05:20:19 10° WSW 05:26:37 64° NW 05:33:35 10° NE
Cosmos 494 Rocket 4.3 05:25:49 10° SW 05:30:37 41° NW 05:35:30 10° NNE
Cosmos 1939 Rocket 4.3 05:29:27 10° NNW 05:31:18 19° NW 05:31:18 19° NW
Cosmos 2279 Rocket 3.9 05:27:16 10° SSW 05:33:31 75° WNW 05:39:49 10° N
NOSS 3-1 (C) 4.4 05:30:50 19° WNW 05:34:01 31° NNW 05:40:07 10° NE
Cosmos 1302 Rocket 4.0 05:29:41 13° NNW 05:34:20 63° WSW 05:39:28 10° S
NOSS 3-1 (A) 4.0 05:33:21 19° WNW 05:36:49 37° NNW 05:43:02 10° NE
SL-08 R/B 4.2 05:32:54 10° SSW 05:36:50 26° W 05:39:21 17° NW
CZ-4C R/B 3.0 05:33:46 15° NW 05:39:53 90° ENE 05:48:23 10° SE
Cosmos 2360 Rocket 3.5 05:38:47 18° WNW 05:40:50 21° NW 05:45:07 10° NNE
Cosmos 1953 Rocket 4.0 05:37:15 10° SW 05:41:28 41° WNW 05:45:44 10° N
Cosmos 2219 Rocket 3.0 05:38:00 13° WSW 05:42:20 31° NW 05:47:23 10° NNE
USA 281 3.4 05:37:11 10° NNE 05:43:26 48° NW 05:49:39 10° WSW
Meteor 1-31 Rocket 3.3 05:39:41 10° NNE 05:43:27 60° ESE 05:47:12 10° S
CZ-3B R/B 4.2 05:40:21 17° WNW 05:44:55 66° SSW 06:07:25 10° SE
Cosmos 1862 4.0 05:42:28 10° SW 05:45:52 29° WNW 05:49:20 10° N
Okean 1 4.2 05:43:19 10° N 05:47:05 48° ENE 05:50:48 10° SSE
Cosmos 1943 Rocket 2.2 05:42:35 11° NW 05:47:52 63° WSW 05:53:17 10° SSE
Cosmos 1151 Rocket 3.9 05:43:52 10° N 05:48:06 51° ENE 05:52:19 10° SSE
ATLAS CENTAUR R/B 3.0 05:49:07 13° NW 05:49:57 14° NNW 05:51:54 10° NNE
ARIANE 5 R/B 3.6 05:46:20 10° N 05:50:26 24° WNW 05:54:31 10° WSW
Intercosmos 25 Rocket 3.6 05:47:01 10° S 05:50:34 88° ESE 05:55:55 10° N
Cosmos 1992 Rocket 4.0 05:47:35 10° NNW 05:52:51 84° WSW 05:58:03 10° SSE
PSLV R/B 4.0 05:49:10 10° N 05:53:11 38° WNW 05:57:09 10° SW
SJ-7 4.4 05:52:04 10° N 05:56:07 59° WNW 06:00:08 10° SSW
CZ-4C R/B 3.4 05:54:06 10° SSE 05:58:17 85° WSW 06:02:32 10° NNW
Geosat 4.3 05:53:31 10° NNE 05:58:18 44° NW 06:03:02 10° WSW
Cosmos 2151 3.4 05:55:04 10° SW 05:59:00 37° WNW 06:02:57 10° N
Cosmos 1655 Rocket 4.1 05:53:33 10° N 05:59:52 87° W 06:06:13 10° S
SL-16 R/B 3.6 05:57:37 10° S 06:02:59 44° ESE 06:08:23 10° NE
Cosmos 2322 Rocket 3.9 06:00:24 12° NW 06:03:00 15° NNW 06:06:20 10° N
ATLAS 3B R/B 3.7 05:58:40 12° WNW 06:04:48 34° NNW 06:11:44 10° NE
NOSS 3-2 (C) 4.1 06:02:19 10° NW 06:09:33 86° NE 06:18:09 10° SE
USA 215 3.5 06:04:13 10° ENE 06:10:47 79° SSE 06:17:19 10° SW
Cosmos 1437 Rocket 3.5 06:08:32 10° SW 06:11:45 28° WNW 06:14:59 10° N
Helios 1B rocket 2.9 06:09:18 10° N 06:12:55 35° WNW 06:16:33 10° SW
CORIOLIS 4.2 06:09:10 10° NNE 06:14:36 78° WNW 06:20:02 10° SSW
CZ-4B R/B 3.8 06:11:53 10° N 06:15:47 64° WNW 06:19:50 10° SSW
Cosmos 614 Rocket 4.0 06:11:23 10° SSW 06:16:36 90° W 06:21:52 10° NNE
Cosmos 1378 4.5 06:14:09 10° NW 06:16:36 18° W 06:19:03 10° SW
Cosmos 2369 Rocket 2.6 06:11:09 10° NNW 06:16:50 64° ENE 06:22:30 10° SE
Cosmos 1666 3.2 06:17:15 10° SW 06:20:27 31° WNW 06:23:40 10° N
Cosmos 1544 4.4 06:19:42 10° WSW 06:21:40 15° WNW 06:23:39 10° NNW
Cosmos 1980 3.9 06:19:41 10° SW 06:25:11 50° NW 06:30:44 10° NNE
ARGOS 4.1 06:22:20 10° N 06:26:42 26° WNW 06:31:03 10° WSW
COSMOS 2428 3.6 06:23:20 10° W 06:28:12 28° NW 06:33:07 10° NNE
Meteor 1-19 Rocket 4.4 06:23:19 10° NNW 06:29:18 67° W 06:35:09 10° S
Cosmos 2333 Rocket 3.8 06:26:26 10° WNW 06:30:00 16° NNW 06:33:34 10° NNE
NOSS 3-2 (A) 4.5 06:26:17 10° NW 06:33:25 51° WSW 06:41:40 10° SSE
CENTAUR R/B 3.8 06:26:01 10° NW 06:33:45 45° WSW 06:42:16 10° S
